Location: Asheville, NC
(35.6000°N, 82.5500°W)
Time: 06:25:38
(UTC-05:00)

Vanguard 3 - Pass Details

Date: 11 February 2018
Orbit: 508 x 3264 km, 33.3° (Epoch: 24 February)

Event Time Altitude Azimuth Distance (km) Brightness Sun altitude
Rises 21:44:40 0° 273° (W) 3,044 10.8 -44.2°
Reaches altitude 10° 21:46:36 10° 270° (W) 2,309 10.0 -44.6°
Enters shadow 21:46:38 10° 270° (W) 2,300 10.0 -44.6°
